Regional Weather Roundup
Issued by NWS

Home | Current Version | Previous Version | Text Only | Print | Product List | Glossary On
Versions: 1 2 3 4 5 6 7 8 9 10 11 12 13 14 15 16 17 18 19 20 21 22 23 24 25 26 27 28 29 30 31 32 33 34 35 36 37 38 39 40 41 42 43 44 45 46 47 48 49 50
000
ASUS44 KLIX 220010
RWRLA
LOUISIANA WEATHER ROUNDUP
NATIONAL WEATHER SERVICE NEW ORLEANS LA
700 PM CDT SUN SEP 21 2014

NOTE: "FAIR" INDICATES FEW OR NO CLOUDS BELOW 12,000 FEET WITH NO
      SIGNIFICANT WEATHER AND/OR OBSTRUCTIONS TO VISIBILITY.
      SKY/WX - SKY CONDITION AND SIGNIFICANT WEATHER.
      TMP - AIR TEMPERATURE.    DP   - DEWPOINT TEMPERATURE.
      RH  - RELATIVE HUMIDITY.  PRES - PRESSURE.
      HX  - HEAT INDEX.         WCI  - WIND CHILL INDEX.

*  THESE STATIONS ARE NOT NWS OR FAA STATIONS AND ARE NOT UNDER
   NWS QUALITY CONTROL.

LAZ040-048-061>063-065-066-069-220100-
SOUTHEAST LOUISIANA

CITY           SKY/WX    TMP DP  RH WIND       PRES   REMARKS
N.O. AUDUBON   NOT AVBL
N.O. INTL ARPT PTCLDY    84  66  54 E7        29.97S
6HR MIN TEMP:  84; 6HR MAX TEMP:  88;

N.O. LAKEFRONT CLEAR     83  66  56 E8        29.98S
6HR MIN TEMP:  83; 6HR MAX TEMP:  88;

N.O. DOWNTOWN* FAIR      84  63  48 S3        29.98S
6HR MIN TEMP:  84; 6HR MAX TEMP:  88;

SLIDELL        CLEAR     82  69  64 S6        29.98R
6HR MIN TEMP:  82; 6HR MAX TEMP:  90;

BATON ROUGE    CLEAR     82  67  60 E5        29.98R
6HR MIN TEMP:  82; 6HR MAX TEMP:  90;

BOOTHVILLE     CLEAR     82  73  74 E9        29.97F
6HR MIN TEMP:  82; 6HR MAX TEMP:  86;

BELLE CHASSE   CLEAR     79  67  66 NE3       29.97S
6HR MIN TEMP:  79; 6HR MAX TEMP:  88;

BOGALUSA*      FAIR      80  71  73 CALM      29.99S
6HR MIN TEMP:  80; 6HR MAX TEMP:  90;

GALLIANO*      NOT AVBL
NEW ROADS*     FAIR      83  68  59 CALM      29.97S
6HR MIN TEMP:  83; 6HR MAX TEMP:  89;

GONZALES*      FAIR      77  75  93 CALM      29.98R
6HR MIN TEMP:  77; 6HR MAX TEMP:  89;

HAMMOND*       CLEAR     82  66  57 CALM      29.99S
HOUMA*         CLEAR     82  52  34 E6        29.97R
PORT FOURCHON* MOCLDY    81  72  74 NE13      30.00S

$$

LAZ041-044-053-054-220100-
SOUTHWEST LOUISIANA

CITY           SKY/WX    TMP DP  RH WIND       PRES   REMARKS
LAKE CHARLES   CLEAR     84  70  62 NE5       29.97R
6HR MIN TEMP:  84; 6HR MAX TEMP:  91;

LAFAYETTE      CLEAR     83  73  72 CALM      29.97S
6HR MIN TEMP:  83; 6HR MAX TEMP:  90;

PATTERSON      CLEAR     81  70  69 NE5       30.00
SALT POINT       N/A     85  70  60 CALM      29.97R
6HR MIN TEMP:  85; 6HR MAX TEMP:  91;

NEW IBERIA     CLEAR     84  67  56 NE3       29.98S
6HR MIN TEMP:  84; 6HR MAX TEMP:  91;

CHENAULT AIRPK NOT AVBL

$$

LAZ027-028-220100-
CENTRAL LOUISIANA

CITY           SKY/WX    TMP DP  RH WIND       PRES   REMARKS
FORT POLK      CLEAR     84  70  62 CALM      29.98S
6HR MIN TEMP:  84; 6HR MAX TEMP:  90;

ALEXANDRIA INT CLEAR     83  72  69 E3        29.96R
6HR MIN TEMP:  83; 6HR MAX TEMP:  92;

ALEXANDRIA     CLEAR     82  73  74 CALM      29.98R
6HR MIN TEMP:  82; 6HR MAX TEMP:  93;


$$

LAZ001-002-220100-
NORTHWEST LOUISIANA

CITY           SKY/WX    TMP DP  RH WIND       PRES   REMARKS
SHREVEPORT     PTCLDY    89  64  43 NE5       29.97S
6HR MIN TEMP:  89; 6HR MAX TEMP:  96;

BARKSDALE AFB  PTCLDY    87  67  51 E2        29.98R
6HR MIN TEMP:  87; 6HR MAX TEMP:  96;

DTN SHREVEPORT CLEAR     85  69  58 CALM      29.97S
6HR MIN TEMP:  85; 6HR MAX TEMP:  95;


$$

LAZ014-016-220100-
NORTHEAST LOUISIANA

CITY           SKY/WX    TMP DP  RH WIND       PRES   REMARKS
MONROE         PTCLDY    84  72  67 CALM      29.97S
6HR MIN TEMP:  84; 6HR MAX TEMP:  94;

TALLULAH       PTCLDY    83  68  60 S5        29.97R
6HR MIN TEMP:  83; 6HR MAX TEMP:  93;


$$



USA.gov is the U.S. government's official web portal to all federal, state and local government web resources and services.